Regional Weather Roundup
Issued by NWS Upton, NY

Current Version | Previous Version | Text Only | Print | Product List | Glossary On
Versions: 1 2 3 4 5 6 7 8 9 10 11 12 13 14 15 16 17 18 19 20 21 22 23 24 25 26 27
000 ASUS41 KOKX 181808 RWROKX REGIONAL WEATHER ROUNDUP NATIONAL WEATHER SERVICE NEW YORK NY 100 PM EST SAT FEB 18 2017 NOTE: "FAIR" INDICATES FEW OR NO CLOUDS BELOW 12,000 FEET WITH NO SIGNIFICANT WEATHER AND/OR OBSTRUCTIONS TO VISIBILITY. NYZ071-072-176-178-NJZ106-104-181900- NEW YORK CITY METRO AREA CITY SKY/WX TMP DP RH WIND PRES REMARKS Central Park SUNNY 55 29 36 W8 29.74F Wall St Helipt NOT AVBL LaGuardia APRT MOSUNNY 56 29 35 SW12 29.72F Kennedy INTL MOSUNNY 50 37 61 S8 29.75F Breezy Point N/A 46 N/A N/A SE6 N/A Newark/Liberty MOSUNNY 59 30 33 SW14 29.72F Teterboro SUNNY 58 31 35 SW9 29.71F $$ NYZ177-179-078>081-181900- LONG ISLAND NEW YORK CITY SKY/WX TMP DP RH WIND PRES REMARKS Jones Beach N/A 45 N/A N/A S10 N/A Matinecock PT N/A 46 N/A N/A SW13 N/A Farmingdale SUNNY 49 36 61 SW12 29.73F MacArthur/ISP MOSUNNY 47 34 60 SW15G23 29.73F Shirley SUNNY 47 34 60 SW16G22 29.75F Westhampton SUNNY 46 34 62 SW14G20 29.76F Southampton NOT AVBL Bridgehampton NOT AVBL East Hampton N/A 46 33 60 SW15G21 29.75F Montauk N/A 47 33 58 SW10G21 29.76F $$ NYZ052-065-067-181900- HUDSON VALLEY CITY SKY/WX TMP DP RH WIND PRES REMARKS White Plains SUNNY 53 26 35 W9 29.70F Newburgh SUNNY 52 30 43 SW12G23 29.69F Montgomery SUNNY 48 28 46 SW15 29.67F Poughkeepsie SUNNY 50 24 36 SW9 29.67F Albany MOSUNNY 44 22 41 S16 29.63F $$ NJZ001-105-106-008-010-013-015-019>022-104-181900- NEW JERSEY CITY SKY/WX TMP DP RH WIND PRES REMARKS Newark/Liberty MOSUNNY 59 30 33 SW14 29.72F Teterboro SUNNY 58 31 35 SW9 29.71F Caldwell SUNNY 56 29 35 VRB7 29.71F Somerville SUNNY 62 31 31 SW6 29.70F Linden NOT AVBL Sussex SUNNY 51 27 39 SW9 29.68F Andover N/A 51 28 41 VRB7 29.70F Trenton SUNNY 60 34 37 SW9 29.74F Millville MOSUNNY 61 37 41 SW12G17 29.78F Atlantic City SUNNY 67 33 28 SW13G18 29.77F Wrightstown SUNNY 63 34 33 W12G22 29.72F Toms River SUNNY 66 35 31 W9 29.74F Belmar SUNNY 62 34 35 SW17G24 29.74F $$ PAZ047>061-062-071-181900- EASTERN PENNSYLVANIA CITY SKY/WX TMP DP RH WIND PRES REMARKS Philadelphia MOSUNNY 61 31 32 SW16 29.76F Allentown SUNNY 61 32 33 SW15 29.72F Scranton SUNNY 59 33 37 W12 29.66F $$ CTZ002-004>006-009-010-012-RIZ004-006-007-MAZ004-011-015-181900- SOUTHERN NEW ENGLAND IN CT CITY SKY/WX TMP DP RH WIND PRES REMARKS Bradley INTL CLOUDY 45 25 45 S14 29.67F Hartford CLOUDY 47 25 42 S13G22 29.69F Danbury SUNNY 48 25 40 SW14 29.71F Wtrbury/Oxford MOSUNNY 48 23 37 SW12G18 29.69F Bridgeport SUNNY 48 29 47 SW9 29.72F Meriden SUNNY 50 22 33 S12G18 29.70F New Haven MOSUNNY 44 26 49 SW7 29.72F Chester N/A 46 23 39 S14G21 29.72F Groton SUNNY 43 31 62 SW13 29.73F Wilimantic SUNNY 48 24 39 SW16G22 29.70F IN RI CITY SKY/WX TMP DP RH WIND PRES REMARKS Providence MOSUNNY 46 26 45 SW16G28 29.71F Block Island SUNNY 46 37 71 SW23 N/A Westerly SUNNY 47 27 45 SW12G22 29.74F IN MA CITY SKY/WX TMP DP RH WIND PRES REMARKS Boston PTSUNNY 45 25 45 S20 29.65F Worcester SUNNY 46 21 37 SW22G28 29.63F Westfield CLOUDY 48 25 40 S15 29.64F Provincetown CLOUDY 45 32 60 SW25 29.69F Nantucket MOSUNNY 45 34 65 S16 29.77F $$ ANZ330-335-338-340-345-350-353-355-181900- COASTAL MARINE OBSERVATIONS STATION/POSITION TIME SKY/WX TEMP WIND PRES VSBY WAVE AIR SEA DIR/SP/G HT/PER (UTC) (F) (DEG/KT/KT) (MB) (MI) (FT/S) NY HARB ENTRANCE 1650 43 42 200/ 12/ 14 1008.7 2/ 3 20 S FIRE ISLAND 1750 44 41 210/ 12/ 16 1007.2 3/ 4 GREAT SOUTH BAY NOT AVBL 23 SSW MONTAUK P 1650 45 45 1009.6 3/ 4 15 E BARNEGAT LI 1730 42 N/A 2/ 8 HUDSON CANYON 1650 51 1010.3 3/ 3 KINGS POINT 1736 47 37 1006.6 EXECUTION ROCKS NOT AVBL CENTRAL LI SOUND 1730 41 250/ 2/ 4 N/A 0 EASTERN LI SOUND NOT AVBL ROBBINS REEF 1736 54 260/ 8/ 11 1007.1 $$ >>>>>>>>>>>>>>>>>>>>>>>>>>>> KEY <<<<<<<<<<<<<<<<<<<<<<<<<<< > < > SKY/WX - Sky Condition/Present Weather < > TMP - Temperature in Fahrenheit < > DP - Dew Point in Fahrenheit < > RH - Relative Humidity in Percent < > WIND - Direction (from) and Speed in MPH < > PRES - Mean Sea Level Pressure (inches of Hg) < > WCI - Wind Chill Index < > VSB - VISIBILITY IN MILES < > HX - HEAT INDEX < > TC - TEMPERATURE IN CELSIUS < > VRB - VARIABLE WIND DIRECTION < > < >>>>>>>>>>>>>>>>>>>>>>>>>>>> KEY <<<<<<<<<<<<<<<<<<<<<<<<<<<

USA.gov is the U.S. government's official web portal to all federal, state and local government web resources and services.